Bowling Green, KY

3:55 PM CDT on March 27, 2017 (GMT -0500)
Bowling Green-Warren County Regional

Weather History for KBWG - April, 2013

Change the Weather History Date:

Sunday, April 14, 2013

  Actual Average Record
Temperature  
Mean Temperature 59 °F 57 °F  
Max Temperature 76 °F 69 °F 88 °F (1919)
Min Temperature 42 °F 45 °F 22 °F (1950)
Degree Days  
Heating Degree Days 6 9  
Month to date heating degree days 139 147  
Since 1 July heating degree days 3711 3865  
Cooling Degree Days 0 1  
Month to date cooling degree days 19 13  
Year to date cooling degree days 19 18  
Growing Degree Days 9 (Base 50)    
Moisture  
Dew Point 44 °F    
Average Humidity 59    
Maximum Humidity 89    
Minimum Humidity 29    
Precipitation  
Precipitation T in 0.14 in 2.24 in (1893)
Month to date precipitation 2.23 1.89  
Year to date precipitation 15.13 13.87  
Snow  
Snow 0.00 in 0.00 in 0.50 in (1943)
Month to date snowfall 0.0 0.2  
Since 1 July snowfall 3.8 9.1  
Snow Depth 0.00 in    
Sea Level Pressure  
Sea Level Pressure 29.94 in    
Wind  
Wind Speed 8 mph (SE)    
Max Wind Speed 18 mph    
Max Gust Speed 25 mph    
Visibility 10 miles    
Events      
T = Trace of Precipitation, MM = Missing Value Source: NWS Daily Summary

Daily Weather History Graph

Daily Weather History Graph

Search for Another Location

Airport or City:

Trip Planner

Search our weather history database for the weather conditions in past years. The results will help you decide how hot, cold, wet, or windy it might be!

Date:

Astronomy

Apr. 14, 2013 Rise Set
Actual Time 6:12 AM CDT 7:19 PM CDT
Civil Twilight 5:45 AM CDT 7:46 PM CDT
Nautical Twilight 5:14 AM CDT 8:18 PM CDT
Astronomical Twilight 4:40 AM CDT 8:51 PM CDT
Moon 8:53 AM CDT (4/14) 11:28 PM CDT (4/14)
Length of Visible Light 14h 00m
Length of Day
13h 07m
Waxing Crescent, 17% of the Moon is Illuminated
Apr 14
Waxing Crescent
Apr 18
First Quarter
Apr 25
Full
May 2
Last Quarter
May 9
New

Hourly Weather History & Observations

Time (CDT) Temp. Dew Point Humidity Pressure Visibility Wind Dir Wind Speed Gust Speed Precip Events Conditions
12:53 AM 45.0 °F 39.9 °F 82% 30.01 in 10.0 mi Calm Calm - N/A   Clear
1:53 AM 45.0 °F 39.9 °F 82% 30.00 in 10.0 mi Calm Calm - N/A   Clear
2:53 AM 46.0 °F 41.0 °F 83% 29.98 in 10.0 mi Calm Calm - N/A   Clear
3:53 AM 44.1 °F 39.9 °F 85% 29.98 in 10.0 mi Calm Calm - N/A   Clear
4:53 AM 45.0 °F 41.0 °F 86% 29.98 in 10.0 mi Calm Calm - N/A   Clear
5:53 AM 43.0 °F 39.0 °F 86% 29.98 in 10.0 mi Calm Calm - N/A   Clear
6:53 AM 46.9 °F 41.0 °F 80% 29.99 in 10.0 mi NE 4.6 mph - N/A   Clear
7:53 AM 51.1 °F 44.1 °F 77% 29.99 in 10.0 mi Calm Calm - N/A   Clear
8:53 AM 55.9 °F 45.0 °F 67% 29.97 in 10.0 mi ENE 3.5 mph - N/A   Clear
9:53 AM 61.0 °F 46.9 °F 60% 29.96 in 10.0 mi East 4.6 mph - N/A   Clear
10:53 AM 66.9 °F 45.0 °F 45% 29.94 in 10.0 mi ESE 6.9 mph - N/A   Clear
11:53 AM 72.0 °F 44.1 °F 37% 29.93 in 10.0 mi South 9.2 mph - N/A   Clear
12:53 PM 75.0 °F 43.0 °F 32% 29.90 in 10.0 mi South 11.5 mph 18.4 mph N/A   Clear
1:53 PM 75.0 °F 43.0 °F 32% 29.89 in 10.0 mi SSW 11.5 mph 23.0 mph N/A   Clear
3:53 PM 73.0 °F 39.0 °F 29% 29.86 in 10.0 mi South 17.3 mph 24.2 mph N/A   Clear
4:53 PM 70.0 °F 43.0 °F 38% 29.89 in 10.0 mi South 19.6 mph 34.5 mph N/A   Clear
5:53 PM 66.9 °F 45.0 °F 45% 29.91 in 10.0 mi South 19.6 mph 24.2 mph N/A   Mostly Cloudy
6:53 PM 64.0 °F 46.9 °F 54% 29.90 in 10.0 mi SE 18.4 mph 32.2 mph 0.00 in   Mostly Cloudy
7:53 PM 62.1 °F 46.9 °F 58% 29.91 in 10.0 mi SE 16.1 mph 20.7 mph N/A   Overcast
8:53 PM 61.0 °F 48.0 °F 62% 29.92 in 10.0 mi SE 10.4 mph - N/A   Overcast
9:53 PM 61.0 °F 48.9 °F 64% 29.92 in 10.0 mi SE 9.2 mph 20.7 mph N/A   Overcast
10:53 PM 60.1 °F 50.0 °F 69% 29.91 in 10.0 mi SE 9.2 mph 18.4 mph N/A   Overcast
11:53 PM 59.0 °F 50.0 °F 72% 29.90 in 10.0 mi SE 6.9 mph - N/A   Overcast